Location: Steilacoom
(47.1700°N, 122.5700°W)
Time: 02:25:54
(UTC-07:00)

OTV 5 (USA 277) - Visible Passes

Search period start: 25 March 2019 00:00
Search period end: 04 April 2019 00:00
Orbit: 315 x 320 km, 54.5° (Epoch: 14 March)

Date Brightness Start Highest point End Pass type
(mag) Time Alt. Az. Time Alt. Az. Time Alt. Az.
01 Apr ? 05:57:50 10° S 05:59:59 21° SE 06:02:09 10° E visible
02 Apr ? 06:11:53 10° SW 06:14:32 51° SE 06:17:12 10° ENE visible
03 Apr ? 04:54:44 14° SE 04:55:12 14° SE 04:56:45 10° E visible
